#timestamp,LO_Frequency,Hit,StdDev 
1598202015.2,286046985.9,P
1598202035.0,286046983.7,P
1598202035.9,286046983.7,P
1598202055.8,286046985.6,N
1598202075.6,286046993.1,N
1598202095.5,286046994.7,N
1598202115.3,286046995.9,N
1598202135.1,286046999.2,N
1598202155.9,286046996.1,N
1598202175.7,286046998.9,N
1598202195.5,286046993.9,N
1598202215.4,286046989.0,N
1598202235.2,286046986.3,N
1598202255.1,286046988.4,N
1598202256.0,286046988.4,N
1598202275.8,286046986.9,N
1598202295.6,286046993.1,N
1598202315.5,286046990.0,N
1598202335.3,286046986.6,N
1598202355.1,286046982.4,Y
1598202375.9,286046990.4,P
1598202395.7,286046990.4,P
1598202415.6,286046990.0,P
1598202435.4,286046985.8,Y
1598202455.2,286046993.5,P
1598202475.1,286046994.8,P
1598202476.0,286046994.8,N
1598202495.8,286046993.1,Y
1598202515.7,286046997.7,P
1598202535.5,286046994.9,N
1598202555.3,286047002.1,N
1598202575.2,286047004.2,N
1598202595.0,286047002.1,N
1598202595.9,286047002.1,N
1598202615.7,286047000.3,N
1598202635.6,286047001.7,N
1598202655.4,286047010.8,Y
1598202675.3,286047011.2,P
1598202695.1,286047011.2,N
1598202715.8,286047011.7,N
1598202735.7,286047009.1,N
1598202755.5,286047004.9,N
1598202775.4,286047005.1,N
1598202795.2,286047003.6,N
1598202815.0,286047001.4,N
1598202815.9,286047001.4,N
1598202835.8,286047005.1,N
1598202855.6,286047003.3,N
1598202875.4,286047002.0,N
1598202895.3,286046998.6,N
1598202915.1,286046997.2,N
1598202935.9,286046993.4,N
1598202955.7,286046994.1,N
1598202975.5,286046993.9,N
1598202995.4,286046994.6,N
1598203015.2,286046992.5,N
1598203035.0,286046992.7,N
1598203035.9,286046992.7,N
1598203055.8,286046992.0,N
1598203075.6,286046990.4,N
1598203095.5,286046989.7,N
1598203115.3,286046986.9,N
1598203135.1,286046987.9,N
1598203155.9,286046988.3,N
1598203175.7,286046988.2,N
1598203195.5,286046987.8,N
1598203215.4,286046985.5,N
1598203235.2,286046986.2,N
1598203255.1,286046986.5,N
1598203256.0,286046986.5,N
1598203275.8,286046985.7,N
1598203295.6,286046994.8,N
1598203315.5,286046992.0,N
1598203335.3,286046990.4,N
1598203355.1,286046989.8,N
1598203375.9,286046990.0,N
1598203395.7,286046985.3,N
1598203415.6,286046984.4,Y
1598203435.4,286046992.0,P
1598203455.2,286046992.5,P
1598203475.1,286046990.5,P
1598203476.0,286046990.5,Y
1598203495.8,286046998.9,P
1598203515.6,286046999.6,N
1598203535.5,286046997.3,N
1598203555.3,286046997.7,N
1598203575.2,286046995.1,N
1598203595.0,286046996.0,N
1598203595.9,286046996.0,N
1598203615.7,286046993.3,N
1598203635.6,286046996.4,N
1598203655.4,286046994.7,N
1598203675.3,286046992.2,Y
1598203695.1,286046997.4,P
1598203715.9,286046996.8,P
1598203735.7,286046999.5,N
1598203755.5,286046999.1,N
1598203775.4,286046999.3,N
1598203795.2,286046996.7,N
1598203815.0,286046997.6,N
1598203815.9,286046997.6,N
1598203835.8,286046999.4,N
1598203855.6,286046999.4,N
1598203875.4,286046998.9,N
1598203895.3,286046997.0,N
1598203915.1,286046997.1,N
1598203935.9,286046996.7,N
1598203955.7,286046996.6,N
1598203975.5,286046996.7,N
1598203995.4,286046996.6,N
1598204015.2,286046994.9,Y
1598204035.0,286046998.6,P
1598204036.0,286046998.6,P
1598204055.8,286046998.9,N
1598204075.6,286046999.4,N
1598204095.5,286046998.8,N
1598204115.3,286046998.1,Y
1598204135.1,286046998.6,P
1598204155.9,286046999.2,P
1598204175.7,286046997.0,P
1598204195.6,286046999.0,N
1598204215.4,286046999.4,N
1598204235.2,286047001.1,N
1598204255.1,286047000.4,N
1598204256.0,286047000.4,N
1598204275.8,286047000.4,N
1598204295.6,286046999.9,N
1598204315.5,286047001.0,N
1598204335.3,286046998.2,N
1598204355.2,286047000.3,N
1598204375.9,286047000.2,N
1598204395.7,286047002.5,N
1598204415.6,286047000.4,N
1598204435.4,286047000.0,N
1598204455.2,286046998.5,N
1598204475.1,286046999.6,N
1598204476.0,286046999.6,N
1598204495.8,286046997.3,N
1598204515.7,286046996.8,N
1598204535.5,286046999.2,N
1598204555.3,286047001.1,N
1598204575.2,286046998.1,N
1598204595.0,286046998.8,N
1598204595.9,286046998.8,N
1598204615.7,286046999.1,N
1598204635.6,286046997.3,N
1598204655.4,286046997.8,N
1598204675.3,286046998.0,N
1598204695.1,286046995.7,Y
1598204715.8,286046996.1,P
1598204735.7,286046996.0,N
1598204755.5,286046996.2,N
1598204775.3,286046996.0,N
1598204795.2,286046996.3,N
1598204815.0,286046993.5,Y
1598204815.9,286046993.5,P
1598204835.8,286046999.2,N
1598204855.6,286046998.4,N
1598204875.4,286046999.5,N
1598204895.3,286046996.8,N
1598204915.1,286046995.6,N
1598204935.9,286046996.2,N
1598204955.7,286046996.2,N
1598204975.5,286046996.0,N
1598204995.4,286046995.0,N
1598205015.2,286046999.1,N
1598205035.0,286046999.5,N
1598205035.9,286046999.5,N
1598205055.8,286046996.5,N
1598205075.6,286046996.6,N
1598205095.5,286046999.3,N
1598205115.3,286046996.7,N
1598205135.1,286046999.1,N
1598205155.9,286046999.3,N
1598205175.7,286046999.3,N
1598205195.5,286046999.6,N
1598205215.4,286046996.9,N
1598205235.2,286046999.3,N
1598205255.1,286046999.5,N
1598205256.0,286046999.5,N
1598205275.8,286046999.1,N
1598205295.6,286046999.0,N
1598205315.5,286046999.4,N
1598205335.3,286046999.6,N
1598205355.1,286046999.4,N
1598205375.9,286046998.4,N
1598205395.7,286047001.0,N
1598205415.6,286047000.7,N
1598205435.4,286047001.2,N
1598205455.2,286046998.3,N
1598205475.1,286046998.1,N
1598205476.0,286046998.1,N
1598205495.8,286046998.1,N
1598205515.7,286046998.5,N
1598205535.5,286047001.1,N
1598205555.3,286047000.6,N
1598205575.2,286046998.1,N
1598205595.0,286047001.1,N
1598205595.9,286047001.1,N
